Time,TemperatureF,DewpointF,PressureIn,WindDirection,WindDirectionDegrees,WindSpeedMPH,WindSpeedGustMPH,Humidity,HourlyPrecipIn,Conditions,Clouds,dailyrainin,SoftwareType,DateUTC
2013-01-08 00:01:00,50.0,50.0,30.27,SSE,161,0.0,1.0,100,0.00,,,0.74,,2013-01-08 08:01:00,
2013-01-08 00:11:00,50.0,50.0,30.27,SSE,161,0.0,1.0,100,0.00,,,0.74,,2013-01-08 08:11:00,
2013-01-08 00:22:00,50.0,50.0,30.26,SE,136,0.0,1.0,100,0.00,,,0.74,,2013-01-08 08:22:00,
2013-01-08 00:32:00,50.0,50.0,30.26,SE,146,0.0,1.0,100,0.00,,,0.74,,2013-01-08 08:32:00,
2013-01-08 00:42:00,50.0,50.0,30.26,SE,146,0.0,1.0,100,0.00,,,0.74,,2013-01-08 08:42:00,
2013-01-08 00:52:00,50.0,50.0,30.26,South,169,0.0,1.0,100,0.01,,,0.75,,2013-01-08 08:52:00,
2013-01-08 01:02:00,50.0,50.0,30.25,SSE,156,0.0,1.0,100,0.01,,,0.75,,2013-01-08 09:02:00,
2013-01-08 01:11:00,50.0,50.0,30.25,SSE,156,0.0,1.0,100,0.01,,,0.75,,2013-01-08 09:11:00,
2013-01-08 01:22:00,50.0,50.0,30.25,SSW,192,0.0,1.0,100,0.02,,,0.76,,2013-01-08 09:22:00,
2013-01-08 01:32:00,50.0,50.0,30.25,South,186,0.0,1.0,100,0.02,,,0.75,,2013-01-08 09:32:00,
2013-01-08 01:42:00,50.0,50.0,30.25,South,186,0.0,1.0,100,0.02,,,0.75,,2013-01-08 09:42:00,
2013-01-08 01:52:00,50.0,50.0,30.24,SSE,163,0.0,1.0,100,0.01,,,0.75,,2013-01-08 09:52:00,
2013-01-08 02:02:00,50.0,50.0,30.24,SSE,161,0.0,1.0,100,0.02,,,0.76,,2013-01-08 10:02:00,
2013-01-08 02:12:00,50.0,50.0,30.24,SSE,161,0.0,1.0,100,0.02,,,0.76,,2013-01-08 10:12:00,
2013-01-08 02:22:00,50.0,50.0,30.24,SSE,155,0.0,0.0,100,0.01,,,0.76,,2013-01-08 10:22:00,
2013-01-08 02:32:00,50.0,50.0,30.24,SSE,160,0.0,0.0,100,0.02,,,0.75,,2013-01-08 10:32:00,
2013-01-08 02:42:00,50.0,50.0,30.24,SSE,160,0.0,0.0,100,0.02,,,0.75,,2013-01-08 10:42:00,
2013-01-08 02:52:00,50.0,50.0,30.23,SSE,163,0.0,0.0,100,0.02,,,0.75,,2013-01-08 10:52:00,
2013-01-08 03:02:00,50.0,50.0,30.23,South,185,0.0,0.0,100,0.02,,,0.76,,2013-01-08 11:02:00,
2013-01-08 03:11:00,50.0,50.0,30.23,South,185,0.0,0.0,100,0.02,,,0.76,,2013-01-08 11:11:00,
2013-01-08 03:22:00,50.0,50.0,30.22,SSE,150,0.0,0.0,100,0.02,,,0.76,,2013-01-08 11:22:00,
2013-01-08 03:32:00,50.0,50.0,30.22,SSE,155,0.0,0.0,100,0.02,,,0.76,,2013-01-08 11:32:00,
2013-01-08 03:42:00,50.0,50.0,30.22,SSE,155,0.0,0.0,100,0.02,,,0.76,,2013-01-08 11:42:00,
2013-01-08 03:53:00,50.0,50.0,30.21,South,176,0.0,0.0,100,0.02,,,0.76,,2013-01-08 11:53:00,
2013-01-08 04:02:00,50.0,50.0,30.21,South,173,0.0,0.0,100,0.02,,,0.77,,2013-01-08 12:02:00,
2013-01-08 04:11:00,50.0,50.0,30.21,South,173,0.0,0.0,100,0.02,,,0.77,,2013-01-08 12:11:00,
2013-01-08 04:22:00,50.0,50.0,30.21,SSE,168,0.0,0.0,100,0.03,,,0.78,,2013-01-08 12:22:00,
2013-01-08 04:32:00,51.0,51.0,30.21,South,180,0.0,0.0,100,0.03,,,0.72,,2013-01-08 12:32:00,
2013-01-08 04:42:00,51.0,51.0,30.21,South,180,0.0,0.0,100,0.03,,,0.72,,2013-01-08 12:42:00,
2013-01-08 04:53:00,51.0,51.0,30.21,SSE,167,0.0,0.0,100,0.05,,,0.74,,2013-01-08 12:53:00,
2013-01-08 05:02:00,51.0,51.0,30.20,SSE,162,0.0,0.0,100,0.06,,,0.76,,2013-01-08 13:02:00,
2013-01-08 05:12:00,51.0,51.0,30.20,SSE,162,0.0,0.0,100,0.06,,,0.76,,2013-01-08 13:12:00,
2013-01-08 05:22:00,51.0,51.0,30.20,SSE,155,0.0,0.0,100,0.05,,,0.76,,2013-01-08 13:22:00,
2013-01-08 05:32:00,51.0,51.0,30.19,South,174,0.0,0.0,100,0.05,,,0.70,,2013-01-08 13:32:00,
2013-01-08 05:42:00,51.0,51.0,30.19,South,174,0.0,0.0,100,0.05,,,0.70,,2013-01-08 13:42:00,
2013-01-08 05:52:00,51.0,51.0,30.19,SSE,150,0.0,0.0,100,0.03,,,0.70,,2013-01-08 13:52:00,
2013-01-08 06:02:00,51.0,51.0,30.19,South,190,0.0,0.0,100,0.01,,,0.70,,2013-01-08 14:02:00,
2013-01-08 06:12:00,51.0,51.0,30.19,South,190,0.0,0.0,100,0.01,,,0.70,,2013-01-08 14:12:00,
2013-01-08 06:22:00,51.0,51.0,30.19,South,188,0.0,0.0,100,0.01,,,0.70,,2013-01-08 14:22:00,
2013-01-08 06:32:00,51.0,51.0,30.19,South,174,0.0,0.0,100,0.00,,,0.45,,2013-01-08 14:32:00,
2013-01-08 06:42:00,51.0,51.0,30.19,South,174,0.0,0.0,100,0.00,,,0.45,,2013-01-08 14:42:00,
2013-01-08 06:53:00,51.0,51.0,30.19,SSW,192,0.0,0.0,100,0.00,,,0.45,,2013-01-08 14:53:00,
2013-01-08 07:02:00,51.0,51.0,30.19,SSE,163,0.0,0.0,100,0.00,,,0.45,,2013-01-08 15:02:00,
2013-01-08 07:12:00,51.0,51.0,30.19,SSE,163,0.0,0.0,100,0.00,,,0.45,,2013-01-08 15:12:00,
2013-01-08 07:22:00,51.0,51.0,30.19,SSW,197,0.0,0.0,100,0.00,,,0.45,,2013-01-08 15:22:00,
2013-01-08 07:32:00,52.0,52.0,30.19,South,184,0.0,0.0,100,0.00,,,0.25,,2013-01-08 15:32:00,
2013-01-08 07:42:00,52.0,52.0,30.19,South,184,0.0,0.0,100,0.00,,,0.25,,2013-01-08 15:42:00,
2013-01-08 07:53:00,52.0,52.0,30.20,South,190,0.0,0.0,100,0.00,,,0.25,,2013-01-08 15:53:00,
2013-01-08 08:02:00,52.0,52.0,30.20,South,186,0.0,0.0,100,0.01,,,0.26,,2013-01-08 16:02:00,
2013-01-08 08:12:00,52.0,52.0,30.20,South,186,0.0,0.0,100,0.01,,,0.26,,2013-01-08 16:12:00,
2013-01-08 08:22:00,52.0,52.0,30.20,SW,231,0.0,0.0,100,0.01,,,0.26,,2013-01-08 16:22:00,
2013-01-08 08:32:00,52.0,52.0,30.21,South,170,0.0,0.0,100,0.01,,,0.16,,2013-01-08 16:32:00,
2013-01-08 08:42:00,52.0,52.0,30.21,South,170,0.0,0.0,100,0.01,,,0.16,,2013-01-08 16:42:00,
2013-01-08 08:52:00,52.0,52.0,30.21,SSW,194,0.0,0.0,100,0.01,,,0.16,,2013-01-08 16:52:00,
2013-01-08 09:02:00,52.0,52.0,30.21,SSE,165,0.0,0.0,100,0.00,,,0.16,,2013-01-08 17:02:00,
2013-01-08 09:12:00,52.0,52.0,30.21,SSE,165,0.0,0.0,100,0.00,,,0.16,,2013-01-08 17:12:00,
2013-01-08 09:22:00,52.0,52.0,30.21,South,172,0.0,0.0,100,0.00,,,0.16,,2013-01-08 17:22:00,
2013-01-08 09:33:00,52.0,52.0,30.21,SSE,154,0.0,0.0,100,0.00,,,0.15,,2013-01-08 17:33:00,
2013-01-08 09:42:00,52.0,52.0,30.21,SSE,154,0.0,0.0,100,0.00,,,0.15,,2013-01-08 17:42:00,
2013-01-08 09:53:00,51.0,51.0,30.20,South,184,0.0,0.0,100,0.00,,,0.15,,2013-01-08 17:53:00,
2013-01-08 10:03:00,51.0,51.0,30.20,SSE,159,0.0,0.0,100,0.00,,,0.15,,2013-01-08 18:03:00,
2013-01-08 10:12:00,51.0,51.0,30.20,SSE,159,0.0,0.0,100,0.00,,,0.15,,2013-01-08 18:12:00,
2013-01-08 10:22:00,51.0,51.0,30.20,SSW,196,0.0,0.0,100,0.00,,,0.15,,2013-01-08 18:22:00,
2013-01-08 10:32:00,51.0,51.0,30.20,South,170,0.0,0.0,100,0.01,,,0.16,,2013-01-08 18:32:00,
2013-01-08 10:43:00,51.0,51.0,30.20,South,170,0.0,0.0,100,0.01,,,0.16,,2013-01-08 18:43:00,
2013-01-08 10:53:00,51.0,51.0,30.20,SSE,160,0.0,0.0,100,0.01,,,0.16,,2013-01-08 18:53:00,
2013-01-08 11:02:00,51.0,51.0,30.19,South,173,0.0,0.0,100,0.01,,,0.16,,2013-01-08 19:02:00,
2013-01-08 11:11:00,51.0,51.0,30.19,South,173,0.0,0.0,100,0.01,,,0.16,,2013-01-08 19:11:00,
2013-01-08 11:22:00,51.0,51.0,30.19,SE,144,0.0,0.0,100,0.01,,,0.16,,2013-01-08 19:22:00,
2013-01-08 11:32:00,51.0,51.0,30.19,South,171,0.0,0.0,100,0.00,,,0.16,,2013-01-08 19:32:00,
2013-01-08 11:42:00,51.0,51.0,30.19,South,171,0.0,0.0,100,0.00,,,0.16,,2013-01-08 19:42:00,
2013-01-08 11:53:00,51.0,51.0,30.19,South,185,0.0,0.0,100,0.00,,,0.16,,2013-01-08 19:53:00,
2013-01-08 12:02:00,51.0,51.0,30.19,South,182,0.0,0.0,100,0.00,,,0.16,,2013-01-08 20:02:00,
2013-01-08 12:12:00,51.0,51.0,30.19,South,182,0.0,0.0,100,0.00,,,0.16,,2013-01-08 20:12:00,
2013-01-08 12:22:00,51.0,51.0,30.18,SSE,166,0.0,0.0,100,0.00,,,0.16,,2013-01-08 20:22:00,
2013-01-08 12:32:00,51.0,51.0,30.18,SSE,163,0.0,0.0,100,0.01,,,0.17,,2013-01-08 20:32:00,
2013-01-08 12:42:00,51.0,51.0,30.18,SSE,163,0.0,0.0,100,0.01,,,0.17,,2013-01-08 20:42:00,
2013-01-08 12:53:00,51.0,51.0,30.17,SSW,194,0.0,0.0,100,0.01,,,0.17,,2013-01-08 20:53:00,
2013-01-08 13:02:00,51.0,51.0,30.17,South,181,0.0,0.0,100,0.01,,,0.17,,2013-01-08 21:02:00,
2013-01-08 13:12:00,51.0,51.0,30.17,South,181,0.0,0.0,100,0.01,,,0.17,,2013-01-08 21:12:00,
2013-01-08 13:22:00,51.0,51.0,30.17,SSE,157,0.0,0.0,100,0.02,,,0.18,,2013-01-08 21:22:00,
2013-01-08 13:32:00,52.0,52.0,30.16,South,175,0.0,0.0,100,0.01,,,0.18,,2013-01-08 21:32:00,
2013-01-08 13:42:00,52.0,52.0,30.16,South,175,0.0,0.0,100,0.01,,,0.18,,2013-01-08 21:42:00,
2013-01-08 13:53:00,52.0,52.0,30.16,SSW,196,0.0,0.0,100,0.01,,,0.18,,2013-01-08 21:53:00,
2013-01-08 14:02:00,52.0,52.0,30.14,South,173,0.0,0.0,100,0.01,,,0.18,,2013-01-08 22:02:00,
2013-01-08 14:12:00,52.0,52.0,30.14,South,173,0.0,0.0,100,0.01,,,0.18,,2013-01-08 22:12:00,
2013-01-08 14:22:00,52.0,52.0,30.14,SSW,195,0.0,0.0,100,0.00,,,0.18,,2013-01-08 22:22:00,
2013-01-08 14:32:00,52.0,52.0,30.14,South,186,0.0,0.0,100,0.00,,,0.18,,2013-01-08 22:32:00,
2013-01-08 14:42:00,52.0,52.0,30.14,South,186,0.0,0.0,100,0.00,,,0.18,,2013-01-08 22:42:00,
2013-01-08 14:53:00,52.0,52.0,30.13,South,174,0.0,0.0,100,0.00,,,0.18,,2013-01-08 22:53:00,
2013-01-08 15:02:00,52.0,52.0,30.14,SSE,165,0.0,0.0,100,0.01,,,0.19,,2013-01-08 23:02:00,
2013-01-08 15:12:00,52.0,52.0,30.14,SSE,165,0.0,0.0,100,0.01,,,0.19,,2013-01-08 23:12:00,
2013-01-08 15:22:00,52.0,52.0,30.13,South,184,0.0,0.0,100,0.01,,,0.19,,2013-01-08 23:22:00,
2013-01-08 15:32:00,52.0,52.0,30.12,South,179,0.0,0.0,100,0.01,,,0.19,,2013-01-08 23:32:00,
2013-01-08 15:42:00,52.0,52.0,30.12,South,179,0.0,0.0,100,0.01,,,0.19,,2013-01-08 23:42:00,
2013-01-08 15:53:00,52.0,52.0,30.12,South,170,0.0,0.0,100,0.01,,,0.19,,2013-01-08 23:53:00,
2013-01-08 16:02:00,52.0,52.0,30.11,SSE,156,0.0,0.0,100,0.00,,,0.19,,2013-01-09 00:02:00,
2013-01-08 16:12:00,52.0,52.0,30.11,SSE,156,0.0,0.0,100,0.00,,,0.19,,2013-01-09 00:12:00,
2013-01-08 16:22:00,51.0,51.0,30.11,SW,217,0.0,0.0,100,0.00,,,0.19,,2013-01-09 00:22:00,
2013-01-08 16:32:00,51.0,51.0,30.11,SSE,161,0.0,0.0,100,0.00,,,0.19,,2013-01-09 00:32:00,
2013-01-08 16:42:00,51.0,51.0,30.11,SSE,161,0.0,0.0,100,0.00,,,0.19,,2013-01-09 00:42:00,
2013-01-08 16:52:00,51.0,51.0,30.11,South,180,0.0,0.0,100,0.00,,,0.19,,2013-01-09 00:52:00,
2013-01-08 17:02:00,51.0,51.0,30.10,SSE,148,0.0,0.0,100,0.00,,,0.19,,2013-01-09 01:02:00,
2013-01-08 17:12:00,51.0,51.0,30.10,SSE,148,0.0,0.0,100,0.00,,,0.19,,2013-01-09 01:12:00,
2013-01-08 17:22:00,51.0,51.0,30.09,South,191,0.0,0.0,100,0.00,,,0.19,,2013-01-09 01:22:00,
2013-01-08 17:32:00,51.0,51.0,30.09,SSE,165,0.0,0.0,100,0.00,,,0.19,,2013-01-09 01:32:00,
2013-01-08 17:42:00,51.0,51.0,30.09,SSE,165,0.0,0.0,100,0.00,,,0.19,,2013-01-09 01:42:00,
2013-01-08 17:52:00,51.0,51.0,30.09,SSW,196,0.0,0.0,100,0.00,,,0.19,,2013-01-09 01:52:00,
2013-01-08 18:02:00,51.0,51.0,30.09,South,169,0.0,0.0,100,0.00,,,0.19,,2013-01-09 02:02:00,
2013-01-08 18:11:00,51.0,51.0,30.09,South,169,0.0,0.0,100,0.00,,,0.19,,2013-01-09 02:11:00,
2013-01-08 18:22:00,51.0,51.0,30.08,South,191,0.0,0.0,100,0.00,,,0.19,,2013-01-09 02:22:00,
2013-01-08 18:32:00,51.0,51.0,30.08,SSE,158,0.0,0.0,100,0.00,,,0.19,,2013-01-09 02:32:00,
2013-01-08 18:42:00,51.0,51.0,30.08,SSE,158,0.0,0.0,100,0.00,,,0.19,,2013-01-09 02:42:00,
2013-01-08 18:52:00,51.0,51.0,30.07,SSE,167,0.0,0.0,100,0.00,,,0.19,,2013-01-09 02:52:00,
2013-01-08 19:02:00,51.0,51.0,30.07,SSE,160,0.0,0.0,100,0.00,,,0.19,,2013-01-09 03:02:00,
2013-01-08 19:11:00,51.0,51.0,30.07,SSE,160,0.0,0.0,100,0.00,,,0.19,,2013-01-09 03:11:00,
2013-01-08 19:22:00,51.0,51.0,30.06,South,190,0.0,0.0,100,0.00,,,0.19,,2013-01-09 03:22:00,
2013-01-08 19:32:00,51.0,51.0,30.06,SSE,164,0.0,0.0,100,0.00,,,0.19,,2013-01-09 03:32:00,
2013-01-08 19:42:00,51.0,51.0,30.06,SSE,164,0.0,0.0,100,0.00,,,0.19,,2013-01-09 03:42:00,
2013-01-08 19:52:00,51.0,51.0,30.06,South,180,0.0,0.0,100,0.00,,,0.19,,2013-01-09 03:52:00,
2013-01-08 20:02:00,51.0,51.0,30.06,SSE,165,0.0,0.0,100,0.00,,,0.19,,2013-01-09 04:02:00,
2013-01-08 20:12:00,51.0,51.0,30.06,SSE,165,0.0,0.0,100,0.00,,,0.19,,2013-01-09 04:12:00,
2013-01-08 20:22:00,51.0,51.0,30.05,South,181,0.0,0.0,100,0.00,,,0.19,,2013-01-09 04:22:00,
2013-01-08 20:32:00,51.0,51.0,30.05,South,178,0.0,0.0,100,0.00,,,0.19,,2013-01-09 04:32:00,
2013-01-08 20:42:00,51.0,51.0,30.05,SE,146,0.0,0.0,100,0.00,,,0.19,,2013-01-09 04:42:00,
2013-01-08 20:52:00,51.0,51.0,30.05,SE,146,0.0,0.0,100,0.00,,,0.19,,2013-01-09 04:52:00,
2013-01-08 21:03:00,51.0,51.0,30.04,SSE,167,0.0,0.0,100,0.00,,,0.19,,2013-01-09 05:03:00,
2013-01-08 21:12:00,51.0,51.0,30.04,SSE,167,0.0,0.0,100,0.00,,,0.19,,2013-01-09 05:12:00,
2013-01-08 21:22:00,51.0,51.0,30.03,South,172,0.0,0.0,100,0.00,,,0.19,,2013-01-09 05:22:00,
2013-01-08 21:32:00,51.0,51.0,30.04,SE,137,0.0,0.0,100,0.01,,,0.20,,2013-01-09 05:32:00,
2013-01-08 21:42:00,51.0,51.0,30.04,SE,137,0.0,0.0,100,0.01,,,0.20,,2013-01-09 05:42:00,
2013-01-08 21:52:00,51.0,51.0,30.03,SSE,167,0.0,0.0,100,0.02,,,0.21,,2013-01-09 05:52:00,
2013-01-08 22:02:00,51.0,51.0,30.03,SSE,165,0.0,0.0,100,0.02,,,0.21,,2013-01-09 06:02:00,
2013-01-08 22:11:00,51.0,51.0,30.03,SSE,165,0.0,0.0,100,0.02,,,0.21,,2013-01-09 06:11:00,
2013-01-08 22:22:00,51.0,51.0,30.03,SSE,164,0.0,0.0,100,0.02,,,0.21,,2013-01-09 06:22:00,
2013-01-08 22:32:00,51.0,51.0,30.03,South,187,0.0,0.0,100,0.02,,,0.22,,2013-01-09 06:32:00,
2013-01-08 22:42:00,51.0,51.0,30.03,South,187,0.0,0.0,100,0.02,,,0.22,,2013-01-09 06:42:00,
2013-01-08 22:52:00,51.0,51.0,30.01,South,173,0.0,0.0,100,0.05,,,0.26,,2013-01-09 06:52:00,
2013-01-08 23:02:00,50.0,50.0,30.03,South,174,0.0,0.0,100,0.05,,,0.26,,2013-01-09 07:02:00,
2013-01-08 23:11:00,50.0,50.0,30.03,South,174,0.0,0.0,100,0.05,,,0.26,,2013-01-09 07:11:00,
2013-01-08 23:22:00,50.0,50.0,30.01,SE,146,0.0,0.0,100,0.06,,,0.27,,2013-01-09 07:22:00,
2013-01-08 23:32:00,50.0,50.0,30.00,South,190,0.0,0.0,100,0.05,,,0.27,,2013-01-09 07:32:00,
2013-01-08 23:42:00,50.0,50.0,30.00,South,190,0.0,0.0,100,0.05,,,0.27,,2013-01-09 07:42:00,
2013-01-08 23:52:00,50.0,50.0,29.99,South,171,0.0,0.0,100,0.01,,,0.27,,2013-01-09 07:52:00,